Location: Bijele Vode
(45.2833°N, 16.2000°E)
Time: 16:46:26
(UTC+00:00)

CENTAUR R/B - Pass Details

Date: 18 September 2020
Orbit: 755 x 1433 km, 63.4° (Epoch: 02 October)

Event Time Altitude Azimuth Distance (km) Brightness Sun altitude
Rises 21:16:17 0° 315° (NW) 4,258 6.7 -39.0°
Reaches altitude 10° 21:19:27 10° 304° (NW) 3,368 5.9 -39.2°
Enters shadow 21:25:43 28° 256° (WSW) 2,364 4.5 -39.8°
